When you browse on this site, cookies collect data to enhance your experience and personalize the content and advertising you see.
Visit our Privacy Policy to learn more. By continuing to use the site, you agree to this use of cookies and data.
  • Em Portugal
  • Lista de países
  • Para 7 dias
  • Temperatura da água
  • Mapas de satélite
  • Mapa do tempo
  • Widgets de tempo
  • user-avatar
    Iniciar Sessão

    Previsão horária em Sidi Bu-l-Abbas

    Hoje, 27 Março, Quarta-feira

    Tempo Temperatura Precipitação Vento Pressão Humidade
    00:00 +10°C° 0.1 mm 4 m/s 719 mmHg 70%
    01:00 +10°C° 0.2 mm 3 m/s 719 mmHg 68%
    02:00 +10°C° 0.2 mm 3 m/s 719 mmHg 65%
    03:00 +9°C° 0.2 mm 3 m/s 719 mmHg 63%
    04:00 +9°C° 0.1 mm 2 m/s 719 mmHg 65%
    05:00 +9°C° 0.1 mm 2 m/s 719 mmHg 66%
    06:00 +8°C° 0.1 mm 2 m/s 719 mmHg 67%
    07:00 +9°C° 0 mm 3 m/s 720 mmHg 65%
    08:00 +10°C° 0 mm 4 m/s 720 mmHg 64%
    09:00 +9°C° 0 mm 5 m/s 720 mmHg 62%
    10:00 +12°C° 0 mm 5 m/s 721 mmHg 55%
    11:00 +13°C° 0 mm 6 m/s 721 mmHg 47%
    12:00 +15°C° 0 mm 6 m/s 722 mmHg 39%
    13:00 +15°C° 0 mm 6 m/s 722 mmHg 38%
    14:00 +16°C° 0 mm 7 m/s 722 mmHg 37%
    15:00 +16°C° 0 mm 7 m/s 721 mmHg 37%
    16:00 +15°C° 0 mm 7 m/s 722 mmHg 43%
    17:00 +14°C° 0 mm 7 m/s 722 mmHg 50%
    18:00 +11°C° 0 mm 8 m/s 722 mmHg 57%
    19:00 +10°C° 0 mm 6 m/s 722 mmHg 64%
    20:00 +10°C° 0 mm 4 m/s 723 mmHg 70%
    21:00 +9°C° 0 mm 2 m/s 723 mmHg 77%
    22:00 +8°C° 0 mm 2 m/s 724 mmHg 80%
    23:00 +8°C° 0 mm 1 m/s 724 mmHg 83%

    Amanhã, 28 Março, Quinta-feira

    Tempo Temperatura Precipitação Vento Pressão Humidade
    00:00 +8°C° 0 mm 1 m/s 724 mmHg 86%
    01:00 +7°C° 0 mm 1 m/s 724 mmHg 88%
    02:00 +7°C° 0 mm 1 m/s 724 mmHg 89%
    03:00 +7°C° 0 mm 1 m/s 724 mmHg 90%
    04:00 +5°C° 0 mm 0 m/s 724 mmHg 91%
    05:00 +5°C° 0 mm 0 m/s 724 mmHg 91%
    06:00 +5°C° 0 mm 0 m/s 724 mmHg 92%
    07:00 +8°C° 0 mm 1 m/s 725 mmHg 82%
    08:00 +9°C° 0 mm 2 m/s 725 mmHg 73%
    09:00 +12°C° 0 mm 2 m/s 726 mmHg 63%
    10:00 +12°C° 0 mm 3 m/s 726 mmHg 56%
    11:00 +14°C° 0 mm 3 m/s 726 mmHg 49%
    12:00 +15°C° 0 mm 4 m/s 726 mmHg 42%
    13:00 +17°C° 0 mm 4 m/s 725 mmHg 41%
    14:00 +16°C° 0 mm 5 m/s 725 mmHg 39%
    15:00 +17°C° 0 mm 5 m/s 724 mmHg 38%
    16:00 +15°C° 0 mm 5 m/s 724 mmHg 46%
    17:00 +14°C° 0 mm 5 m/s 724 mmHg 54%
    18:00 +12°C° 0 mm 5 m/s 724 mmHg 62%
    19:00 +11°C° 0 mm 4 m/s 724 mmHg 70%
    20:00 +10°C° 0 mm 3 m/s 724 mmHg 77%
    21:00 +9°C° 0 mm 1 m/s 725 mmHg 85%
    22:00 +9°C° 0 mm 1 m/s 724 mmHg 86%
    23:00 +9°C° 0 mm 1 m/s 724 mmHg 87%

    Depois de amanhã, 29 Março, Sexta-feira

    Tempo Temperatura Precipitação Vento Pressão Humidade
    00:00 +8°C° 0 mm 1 m/s 724 mmHg 88%
    01:00 +8°C° 0 mm 1 m/s 724 mmHg 87%
    02:00 +8°C° 0 mm 1 m/s 724 mmHg 85%
    03:00 +8°C° 0 mm 1 m/s 723 mmHg 84%
    04:00 +8°C° 0 mm 1 m/s 723 mmHg 82%
    05:00 +7°C° 0 mm 2 m/s 723 mmHg 81%
    06:00 +7°C° 0 mm 2 m/s 723 mmHg 80%
    07:00 +10°C° 0 mm 2 m/s 723 mmHg 69%
    08:00 +13°C° 0 mm 2 m/s 724 mmHg 57%
    09:00 +16°C° 0 mm 3 m/s 724 mmHg 46%
    10:00 +18°C° 0 mm 2 m/s 724 mmHg 42%
    11:00 +19°C° 0 mm 2 m/s 724 mmHg 38%
    12:00 +21°C° 0 mm 2 m/s 724 mmHg 34%
    13:00 +21°C° 0 mm 3 m/s 723 mmHg 36%
    14:00 +21°C° 0 mm 4 m/s 723 mmHg 37%
    15:00 +21°C° 0 mm 4 m/s 723 mmHg 38%
    16:00 +20°C° 0 mm 4 m/s 722 mmHg 45%
    17:00 +18°C° 0 mm 4 m/s 722 mmHg 51%
    18:00 +17°C° 0 mm 4 m/s 722 mmHg 57%
    19:00 +14°C° 0.1 mm 3 m/s 722 mmHg 66%
    20:00 +14°C° 0.1 mm 2 m/s 723 mmHg 74%
    21:00 +11°C° 0.1 mm 0 m/s 723 mmHg 83%
    22:00 +11°C° 0.1 mm 0 m/s 723 mmHg 85%
    23:00 +10°C° 0.1 mm 0 m/s 723 mmHg 87%

    30 Março, Sábado

    Tempo Temperatura Precipitação Vento Pressão Humidade
    00:00 +10°C° 0.1 mm 0 m/s 723 mmHg 89%
    01:00 +10°C° 0 mm 0 m/s 722 mmHg 87%
    02:00 +10°C° 0 mm 0 m/s 722 mmHg 85%
    03:00 +10°C° 0 mm 0 m/s 722 mmHg 84%
    04:00 +10°C° 0 mm 0 m/s 722 mmHg 83%
    05:00 +9°C° 0 mm 0 m/s 721 mmHg 83%
    06:00 +9°C° 0 mm 0 m/s 721 mmHg 83%
    07:00 +13°C° 0 mm 1 m/s 722 mmHg 70%
    08:00 +15°C° 0 mm 2 m/s 722 mmHg 57%
    09:00 +18°C° 0 mm 3 m/s 723 mmHg 44%
    10:00 +20°C° 0 mm 3 m/s 722 mmHg 39%
    11:00 +22°C° 0 mm 3 m/s 722 mmHg 34%
    12:00 +25°C° 0 mm 4 m/s 722 mmHg 29%
    13:00 +26°C° 0 mm 4 m/s 722 mmHg 29%
    14:00 +26°C° 0 mm 4 m/s 721 mmHg 30%
    15:00 +26°C° 0 mm 4 m/s 720 mmHg 30%
    16:00 +24°C° 0.1 mm 3 m/s 720 mmHg 39%
    17:00 +21°C° 0.1 mm 3 m/s 720 mmHg 48%
    18:00 +19°C° 0.1 mm 2 m/s 719 mmHg 56%
    19:00 +19°C° 0 mm 3 m/s 719 mmHg 53%
    20:00 +18°C° 0 mm 4 m/s 720 mmHg 50%
    21:00 +16°C° 0 mm 5 m/s 720 mmHg 47%
    22:00 +16°C° 0.3 mm 5 m/s 719 mmHg 49%
    23:00 +16°C° 0.3 mm 5 m/s 719 mmHg 52%

    31 Março, Domingo

    Tempo Temperatura Precipitação Vento Pressão Humidade
    00:00 +15°C° 0.3 mm 5 m/s 719 mmHg 54%
    01:00 +15°C° 0.1 mm 5 m/s 718 mmHg 54%
    02:00 +14°C° 0.1 mm 5 m/s 717 mmHg 54%
    03:00 +14°C° 0.1 mm 5 m/s 717 mmHg 53%
    04:00 +14°C° 0.5 mm 5 m/s 717 mmHg 60%
    05:00 +13°C° 0.5 mm 5 m/s 716 mmHg 66%
    06:00 +13°C° 0.5 mm 5 m/s 716 mmHg 72%
    07:00 +14°C° 0.3 mm 6 m/s 716 mmHg 67%
    08:00 +15°C° 0.3 mm 8 m/s 716 mmHg 61%
    09:00 +16°C° 0.3 mm 9 m/s 716 mmHg 56%
    10:00 +18°C° 0 mm 9 m/s 716 mmHg 51%
    11:00 +19°C° 0 mm 9 m/s 716 mmHg 47%
    12:00 +22°C° 0 mm 8 m/s 716 mmHg 43%
    13:00 +22°C° 0 mm 8 m/s 715 mmHg 43%
    14:00 +22°C° 0 mm 7 m/s 714 mmHg 43%
    15:00 +22°C° 0 mm 7 m/s 714 mmHg 43%
    16:00 +21°C° 0.3 mm 6 m/s 714 mmHg 49%
    17:00 +20°C° 0.3 mm 5 m/s 713 mmHg 55%
    18:00 +18°C° 0.3 mm 3 m/s 713 mmHg 61%
    19:00 +17°C° 1.2 mm 3 m/s 714 mmHg 70%
    20:00 +16°C° 1.2 mm 3 m/s 714 mmHg 79%
    21:00 +14°C° 1.2 mm 3 m/s 715 mmHg 89%
    22:00 +13°C° 0.2 mm 3 m/s 715 mmHg 90%
    23:00 +13°C° 0.2 mm 4 m/s 715 mmHg 91%

    1 Abril, Segunda-feira

    Tempo Temperatura Precipitação Vento Pressão Humidade
    00:00 +12°C° 0.2 mm 5 m/s 715 mmHg 93%
    01:00 +12°C° 0.1 mm 5 m/s 715 mmHg 92%
    02:00 +12°C° 0.1 mm 5 m/s 715 mmHg 92%
    03:00 +11°C° 0.1 mm 6 m/s 715 mmHg 91%
    04:00 +12°C° 0.1 mm 5 m/s 715 mmHg 92%
    05:00 +11°C° 0.1 mm 4 m/s 716 mmHg 92%
    06:00 +11°C° 0.1 mm 4 m/s 716 mmHg 93%
    07:00 +12°C° 0.1 mm 3 m/s 717 mmHg 91%
    08:00 +12°C° 0.1 mm 3 m/s 717 mmHg 89%
    09:00 +12°C° 0.1 mm 3 m/s 718 mmHg 86%
    10:00 +13°C° 0.2 mm 3 m/s 718 mmHg 82%
    11:00 +14°C° 0.2 mm 3 m/s 718 mmHg 78%
    12:00 +16°C° 0.2 mm 3 m/s 718 mmHg 73%
    13:00 +16°C° 0.3 mm 3 m/s 718 mmHg 71%
    14:00 +16°C° 0.3 mm 3 m/s 718 mmHg 69%
    15:00 +17°C° 0.3 mm 3 m/s 718 mmHg 67%
    16:00 +16°C° 0.1 mm 2 m/s 718 mmHg 68%
    17:00 +16°C° 0.1 mm 2 m/s 718 mmHg 69%
    18:00 +16°C° 0.1 mm 2 m/s 718 mmHg 71%
    19:00 +15°C° 0 mm 2 m/s 718 mmHg 75%
    20:00 +14°C° 0 mm 2 m/s 719 mmHg 80%
    21:00 +13°C° 0 mm 2 m/s 719 mmHg 84%
    22:00 +12°C° 0 mm 1 m/s 719 mmHg 85%
    23:00 +12°C° 0 mm 1 m/s 719 mmHg 86%
    Mostrar mais